Fuel Prices

100LL: $4.15 (self-service)
100LL: $4.81 (full-service)
Jet-A: $3.47 (full-service)

Updated: February 14, 2017

Pilot Training

We offer pilot training from the basic private pilot course through ATP. We also provide aircraft rentals to qualified pilots looking for a place to fly.

Visit our school

Reservations

Are you planning a stop in Merritt Island? Need a tie-down or hangar spot? Let us know ahead of time and we'll be awaiting your arrival.

Plan Your Stop

Located at the Merritt Island Airport (KCOI), Space Coast Aviation is the premier FBO for all of your needs. We’re the closest FBO to Cocoa Beach, Kennedy Space Center and Port Canaveral.

Swing by and enjoy our competitive fuel prices, refreshments, on-site maintenance, car rental services and much more.

Airport Information

Identifier: KCOI
Non-Towered
Runway: 11 / 29
3601 X 75 ft
Surface: Asphalt

CTAF/UNICOM: 122.975
AWOS-3: 119.025
ORL APP: 132.65

Area Weather

Patrick AFB (KCOF) METAR:

KCOF 220658Z AUTO 15014KT 10SM FEW043 SCT070 22/18 A2987 RMK AO2 SLP119 T02210182 $

Titusville (KTIX) METAR:

KTIX 212350Z 11011KT 7SM SCT032 22/17 A3000

Melbourne (KMLB) METAR:

KMLB 220653Z AUTO 14011KT 10SM FEW034 SCT041 OVC070 22/17 A2988 RMK AO2 SLP117 T02170172

Hours of Operation

Mon: 7:00am - 8:00pm EST
Tue: 7:00am - 8:00pm EST
Wed: 7:00am - 8:00pm EST
Thu: 7:00am - 8:00pm EST
Fri: 7:00am - 8:00pm EST
Sat: 7:00am - 8:00pm EST
Sun: 7:00am - 8:00pm EST

Contact Us

Merritt Island Airport
900 Airport Road
Merritt Island, FL 32952

P: +1 (321) 453-2222